"SCLK","SCET","ORBIT_NUMBER","ALTITUDE","LATITUDE_PLANEOGRAPHIC","LATITUDE_PLANETOCENTRIC","LOCAL_TRUE_SOLAR_TIME","WEST_LONGITUDE","X_SUN_DIR_DISTANCE","RHO_PRP_SUN_DISTANCE","SOLAR_ZENITH_ANGLE","ELECTRON_PLASMA_FREQUENCY","FPE_QUALITY","FPP_VERIFICATION","ELECTRON_PLASMA_DENSITY","ELECTRON_CYCLOTRON_PERIOD","FCP_QUALITY","B_MAGNITUDE"
"1/0364917313.46068",2014-11-24T13:55:17.625,13832,1565.00,44.32,44.06,"08:17:35",11.23,-1.150,0.890,142.29,1.17e+02,2,,1.70e+02,,,
"1/0364917321.16118",2014-11-24T13:55:25.168,13832,1554.00,44.60,44.34,"08:17:42",11.23,-1.150,0.890,142.15,1.19e+02,2,,1.76e+02,,,
"1/0364917328.51770",2014-11-24T13:55:32.712,13832,1543.00,44.89,44.62,"08:17:49",11.23,-1.150,0.890,142.01,1.18e+02,2,,1.73e+02,,,
"1/0364917336.21820",2014-11-24T13:55:40.255,13832,1532.00,45.17,44.90,"08:17:57",11.23,-1.140,0.890,141.87,1.20e+02,2,,1.79e+02,,,
"1/0364917343.57406",2014-11-24T13:55:47.798,13832,1521.00,45.45,45.19,"08:18:04",11.23,-1.140,0.890,141.72,1.15e+02,2,,1.64e+02,,,
"1/0364917351.27456",2014-11-24T13:55:55.341,13832,1511.00,45.74,45.47,"08:18:11",11.23,-1.130,0.890,141.58,1.07e+02,2,,1.42e+02,4.76e+00,1,7.50e+00
"1/0364917358.63042",2014-11-24T13:56:02.884,13832,1500.00,46.03,45.76,"08:18:19",11.23,-1.130,0.890,141.43,1.10e+02,2,,1.50e+02,4.51e+00,1,7.92e+00
"1/0364917366.33157",2014-11-24T13:56:10.428,13832,1489.00,46.32,46.05,"08:18:26",11.23,-1.120,0.900,141.28,1.02e+02,2,,1.29e+02,4.42e+00,1,8.08e+00
"1/0364917374.03207",2014-11-24T13:56:17.971,13832,1479.00,46.61,46.34,"08:18:33",11.23,-1.120,0.900,141.12,9.80e+01,2,,1.19e+02,,,
"1/0364917381.38793",2014-11-24T13:56:25.514,13832,1468.00,46.90,46.63,"08:18:41",11.23,-1.110,0.900,140.97,1.03e+02,2,,1.32e+02,4.48e+00,1,7.97e+00
"1/0364917389.08843",2014-11-24T13:56:33.057,13832,1457.00,47.19,46.92,"08:21:05",11.22,-1.110,0.900,140.81,1.03e+02,2,,1.32e+02,4.32e+00,1,8.27e+00
"1/0364917396.44430",2014-11-24T13:56:40.600,13832,1447.00,47.48,47.21,"08:21:13",11.22,-1.100,0.900,140.65,1.06e+02,2,,1.39e+02,4.25e+00,1,8.40e+00
"1/0364917404.14545",2014-11-24T13:56:48.144,13832,1436.00,47.78,47.51,"08:23:38",11.21,-1.100,0.900,140.49,1.08e+02,2,,1.45e+02,4.23e+00,1,8.45e+00
"1/0364917411.50131",2014-11-24T13:56:55.687,13832,1426.00,48.08,47.80,"08:23:45",11.21,-1.090,0.900,140.33,9.70e+01,2,,1.17e+02,3.98e+00,1,8.96e+00
"1/0364917419.20181",2014-11-24T13:57:03.230,13832,1415.00,48.37,48.10,"08:26:10",11.20,-1.090,0.900,140.17,9.80e+01,2,,1.19e+02,4.07e+00,1,8.77e+00
"1/0364917426.55767",2014-11-24T13:57:10.773,13832,1405.00,48.67,48.40,"08:26:17",11.20,-1.080,0.900,140.00,9.00e+01,2,,1.00e+02,3.86e+00,1,9.26e+00
"1/0364917434.25817",2014-11-24T13:57:18.316,13832,1394.00,48.97,48.70,"08:28:42",11.19,-1.080,0.900,139.83,9.10e+01,2,,1.03e+02,,,
"1/0364917441.61469",2014-11-24T13:57:25.860,13832,1384.00,49.27,49.00,"08:28:49",11.19,-1.070,0.910,139.66,9.30e+01,2,,1.07e+02,4.04e+00,1,8.85e+00
"1/0364917449.31519",2014-11-24T13:57:33.403,13832,1373.00,49.58,49.30,"08:31:14",11.18,-1.070,0.910,139.49,1.00e+02,2,,1.24e+02,4.01e+00,1,8.91e+00
"1/0364917457.01569",2014-11-24T13:57:40.946,13832,1363.00,49.88,49.61,"08:33:39",11.17,-1.060,0.910,139.31,1.00e+02,2,,1.24e+02,3.98e+00,1,8.96e+00
"1/0364917464.37155",2014-11-24T13:57:48.489,13832,1352.00,50.18,49.91,"08:36:04",11.16,-1.060,0.910,139.14,9.50e+01,2,,1.12e+02,3.79e+00,1,9.42e+00
"1/0364917472.07205",2014-11-24T13:57:56.032,13832,1342.00,50.49,50.22,"08:38:29",11.15,-1.050,0.910,138.96,9.30e+01,2,,1.07e+02,3.69e+00,1,9.68e+00
"1/0364917479.42856",2014-11-24T13:58:03.576,13832,1332.00,50.80,50.52,"08:40:54",11.14,-1.050,0.910,138.78,9.60e+01,2,,1.14e+02,3.56e+00,1,1.00e+01
"1/0364917487.12906",2014-11-24T13:58:11.119,13832,1322.00,51.11,50.83,"08:43:18",11.13,-1.040,0.910,138.60,1.01e+02,2,,1.26e+02,3.58e+00,2,9.99e+00
"1/0364917494.48492",2014-11-24T13:58:18.662,13832,1311.00,51.42,51.14,"08:45:43",11.12,-1.040,0.910,138.41,1.01e+02,2,,1.26e+02,3.45e+00,1,1.04e+01
"1/0364917502.18542",2014-11-24T13:58:26.205,13832,1301.00,51.73,51.46,"08:50:26",11.10,-1.030,0.920,138.22,1.03e+02,2,,1.32e+02,3.47e+00,1,1.03e+01
"1/0364917509.54128",2014-11-24T13:58:33.748,13832,1291.00,52.04,51.77,"08:52:50",11.09,-1.030,0.920,138.04,1.01e+02,2,,1.26e+02,3.41e+00,1,1.05e+01
"1/0364917517.24244",2014-11-24T13:58:41.292,13832,1281.00,52.36,52.08,"08:55:15",11.08,-1.020,0.920,137.84,1.00e+02,2,,1.24e+02,3.27e+00,1,1.09e+01
"1/0364917524.59830",2014-11-24T13:58:48.835,13832,1271.00,52.67,52.40,"08:59:58",11.06,-1.010,0.920,137.65,1.17e+02,2,,1.70e+02,3.31e+00,1,1.08e+01
"1/0364917532.29880",2014-11-24T13:58:56.378,13832,1260.00,52.99,52.72,"09:02:23",11.05,-1.010,0.920,137.46,1.20e+02,2,,1.79e+02,3.31e+00,1,1.08e+01
"1/0364917539.65466",2014-11-24T13:59:03.921,13832,1250.00,53.31,53.04,"09:07:05",11.03,-1.000,0.920,137.26,1.23e+02,2,,1.88e+02,3.40e+00,1,1.05e+01
"1/0364917547.35516",2014-11-24T13:59:11.464,13832,1240.00,53.63,53.36,"09:11:47",11.01,-1.000,0.920,137.06,1.40e+02,2,,2.43e+02,3.50e+00,1,1.02e+01
"1/0364917555.05632",2014-11-24T13:59:19.008,13832,1230.00,53.95,53.68,"09:16:30",10.99,-0.990,0.930,136.86,1.58e+02,2,,3.10e+02,,,
"1/0364917562.41218",2014-11-24T13:59:26.551,13832,1220.00,54.27,54.00,"09:21:12",10.97,-0.990,0.930,136.66,1.75e+02,2,,3.80e+02,3.88e+00,1,9.20e+00
"1/0364917570.11268",2014-11-24T13:59:34.094,13832,1210.00,54.60,54.32,"09:25:54",10.95,-0.980,0.930,136.45,1.90e+02,2,,4.48e+02,,,
"1/0364917577.46854",2014-11-24T13:59:41.637,13832,1200.00,54.92,54.65,"09:30:37",10.93,-0.980,0.930,136.24,1.86e+02,2,,4.29e+02,,,
"1/0364917585.16904",2014-11-24T13:59:49.180,13832,1191.00,55.25,54.98,"09:35:19",10.91,-0.970,0.930,136.04,1.90e+02,2,,4.48e+02,,,
"1/0364917592.52555",2014-11-24T13:59:56.724,13832,1181.00,55.58,55.30,"09:42:19",10.88,-0.970,0.930,135.82,1.91e+02,2,,4.52e+02,,,
"1/0364917600.22605",2014-11-24T14:00:04.267,13832,1171.00,55.90,55.63,"09:47:01",10.86,-0.960,0.930,135.61,1.90e+02,2,,4.48e+02,,,
"1/0364917607.58191",2014-11-24T14:00:11.810,13832,1161.00,56.23,55.97,"09:54:01",10.83,-0.950,0.940,135.40,2.04e+02,2,,5.16e+02,,,
"1/0364917615.28241",2014-11-24T14:00:19.353,13832,1151.00,56.57,56.30,"10:01:01",10.80,-0.950,0.940,135.18,2.13e+02,2,,5.63e+02,,,
"1/0364917622.63827",2014-11-24T14:00:26.896,13832,1142.00,56.90,56.63,"10:05:43",10.78,-0.940,0.940,134.96,2.04e+02,2,,5.16e+02,,,
"1/0364917630.33943",2014-11-24T14:00:34.440,13832,1132.00,57.23,56.97,"10:12:43",10.75,-0.940,0.940,134.74,2.08e+02,2,,5.37e+02,4.29e+00,1,8.32e+00
"1/0364917638.03993",2014-11-24T14:00:41.983,13832,1122.00,57.57,57.31,"10:22:01",10.71,-0.930,0.940,134.51,2.10e+02,2,,5.47e+02,4.36e+00,1,8.20e+00
"1/0364917645.39579",2014-11-24T14:00:49.526,13832,1113.00,57.91,57.64,"10:29:00",10.68,-0.930,0.940,134.29,2.02e+02,2,,5.06e+02,,,
"1/0364917653.09629",2014-11-24T14:00:57.069,13832,1103.00,58.25,57.98,"10:36:00",10.65,-0.920,0.950,134.06,2.00e+02,2,,4.96e+02,,,
"1/0364917660.45215",2014-11-24T14:01:04.612,13832,1094.00,58.59,58.32,"10:45:18",10.61,-0.910,0.950,133.83,2.13e+02,2,,5.63e+02,,,
"1/0364917668.15331",2014-11-24T14:01:12.156,13832,1084.00,58.93,58.67,"10:54:35",10.57,-0.910,0.950,133.60,2.23e+02,2,,6.17e+02,,,
"1/0364917675.50917",2014-11-24T14:01:19.699,13832,1075.00,59.27,59.01,"11:03:52",10.53,-0.900,0.950,133.37,1.93e+02,2,,4.62e+02,,,
"1/0364917683.20967",2014-11-24T14:01:27.242,13832,1066.00,59.62,59.36,"11:13:10",10.49,-0.900,0.950,133.13,1.84e+02,2,,4.20e+02,3.58e+00,1,9.99e+00
"1/0364917690.56553",2014-11-24T14:01:34.785,13832,1056.00,59.96,59.70,"11:22:27",10.45,-0.890,0.950,132.89,1.60e+02,2,,3.17e+02,,,
"1/0364917698.26603",2014-11-24T14:01:42.328,13832,1047.00,60.31,60.05,"11:31:45",10.41,-0.890,0.960,132.65,1.88e+02,2,,4.38e+02,,,
"1/0364917705.62254",2014-11-24T14:01:49.872,13832,1038.00,60.66,60.40,"11:43:19",10.36,-0.880,0.960,132.41,1.89e+02,2,,4.43e+02,,,
"1/0364917713.32304",2014-11-24T14:01:57.415,13832,1028.00,61.01,60.75,"11:54:54",10.31,-0.870,0.960,132.17,1.94e+02,2,,4.67e+02,,,
"1/0364917721.02354",2014-11-24T14:02:04.958,13832,1019.00,61.36,61.11,"12:06:29",10.26,-0.870,0.960,131.92,1.93e+02,2,,4.62e+02,,,
"1/0364917728.37940",2014-11-24T14:02:12.501,13832,1010.00,61.71,61.46,"12:18:04",10.21,-0.860,0.960,131.67,1.74e+02,2,,3.75e+02,3.73e+00,1,9.58e+00
"1/0364917736.08056",2014-11-24T14:02:20.045,13832,1001.00,62.07,61.82,"12:31:57",10.15,-0.860,0.960,131.42,1.76e+02,2,,3.84e+02,3.74e+00,1,9.54e+00
"1/0364917743.43642",2014-11-24T14:02:27.588,13832,992.00,62.42,62.17,"12:45:49",10.09,-0.850,0.970,131.17,1.68e+02,2,,3.50e+02,3.84e+00,1,9.29e+00
"1/0364917751.13692",2014-11-24T14:02:35.131,13832,983.00,62.78,62.53,"12:59:41",10.03,-0.840,0.970,130.92,1.73e+02,2,,3.71e+02,,,
"1/0364917758.49278",2014-11-24T14:02:42.674,13832,974.00,63.14,62.89,"13:13:34",9.97,-0.840,0.970,130.66,1.65e+02,2,,3.38e+02,,,
"1/0364917766.19328",2014-11-24T14:02:50.217,13832,965.00,63.50,63.25,"13:27:26",9.91,-0.830,0.970,130.40,1.68e+02,2,,3.50e+02,3.92e+00,1,9.11e+00
"1/0364917773.54980",2014-11-24T14:02:57.761,13832,956.00,63.86,63.61,"13:43:36",9.84,-0.830,0.970,130.14,1.70e+02,2,,3.58e+02,4.05e+00,1,8.82e+00
"1/0364917781.25030",2014-11-24T14:03:05.304,13832,947.00,64.22,63.98,"13:59:46",9.77,-0.820,0.980,129.88,1.64e+02,2,,3.34e+02,4.11e+00,1,8.68e+00
"1/0364917788.60616",2014-11-24T14:03:12.847,13832,939.00,64.58,64.34,"14:18:13",9.69,-0.810,0.980,129.62,1.65e+02,2,,3.38e+02,4.16e+00,1,8.58e+00
"1/0364917796.30666",2014-11-24T14:03:20.390,13832,930.00,64.95,64.71,"14:34:23",9.62,-0.810,0.980,129.35,1.64e+02,2,,3.34e+02,4.29e+00,1,8.32e+00
"1/0364917804.00716",2014-11-24T14:03:27.933,13832,921.00,65.31,65.08,"14:55:08",9.53,-0.800,0.980,129.08,1.69e+02,2,,3.54e+02,,,
"1/0364917811.36367",2014-11-24T14:03:35.477,13832,912.00,65.68,65.45,"15:13:36",9.45,-0.790,0.980,128.81,1.64e+02,2,,3.34e+02,4.58e+00,1,7.79e+00
"1/0364917819.06417",2014-11-24T14:03:43.020,13832,904.00,66.05,65.82,"15:34:21",9.36,-0.790,0.980,128.54,1.78e+02,2,,3.93e+02,,,
"1/0364917826.42003",2014-11-24T14:03:50.563,13832,895.00,66.42,66.19,"15:55:05",9.27,-0.780,0.990,128.27,1.76e+02,2,,3.84e+02,,,
"1/0364917834.12053",2014-11-24T14:03:58.106,13832,887.00,66.79,66.57,"16:18:08",9.17,-0.780,0.990,127.99,1.66e+02,2,,3.42e+02,,,
"1/0364917841.47639",2014-11-24T14:04:05.649,13832,878.00,67.17,66.94,"16:41:10",9.07,-0.770,0.990,127.72,1.72e+02,2,,3.67e+02,,,
"1/0364917849.17755",2014-11-24T14:04:13.193,13832,870.00,67.54,67.32,"17:04:13",8.97,-0.760,0.990,127.44,1.69e+02,2,,3.54e+02,,,
"1/0364917856.53341",2014-11-24T14:04:20.736,13832,862.00,67.92,67.70,"17:29:33",8.86,-0.760,0.990,127.15,1.74e+02,2,,3.75e+02,,,
"1/0364917864.23391",2014-11-24T14:04:28.279,13832,853.00,68.29,68.08,"17:57:10",8.74,-0.750,0.990,126.87,1.81e+02,2,,4.06e+02,,,
"1/0364917871.58977",2014-11-24T14:04:35.822,13832,845.00,68.67,68.46,"18:24:48",8.62,-0.740,1.000,126.59,1.93e+02,2,,4.62e+02,,,
"1/0364917879.29027",2014-11-24T14:04:43.365,13832,837.00,69.05,68.84,"18:54:43",8.49,-0.740,1.000,126.30,1.86e+02,2,,4.29e+02,,,
"1/0364917886.64679",2014-11-24T14:04:50.909,13832,829.00,69.43,69.23,"19:24:38",8.36,-0.730,1.000,126.01,1.76e+02,2,,3.84e+02,,,
"1/0364917894.34729",2014-11-24T14:04:58.452,13832,821.00,69.82,69.61,"19:56:50",8.22,-0.720,1.000,125.72,1.61e+02,2,,3.21e+02,3.73e+00,1,9.58e+00
"1/0364917902.04779",2014-11-24T14:05:05.995,13832,813.00,70.20,70.00,"20:31:20",8.07,-0.720,1.000,125.42,1.47e+02,2,,2.68e+02,3.72e+00,1,9.61e+00
"1/0364917909.40365",2014-11-24T14:05:13.538,13832,805.00,70.58,70.38,"21:05:50",7.92,-0.710,1.010,125.13,1.39e+02,2,,2.40e+02,3.64e+00,1,9.81e+00
"1/0364917917.10415",2014-11-24T14:05:21.081,13832,797.00,70.97,70.77,"21:44:55",7.75,-0.700,1.010,124.83,1.27e+02,2,,2.00e+02,3.45e+00,1,1.04e+01
"1/0364917924.46066",2014-11-24T14:05:28.625,13832,789.00,71.36,71.16,"22:24:00",7.58,-0.700,1.010,124.53,1.32e+02,2,,2.16e+02,3.49e+00,1,1.02e+01
"1/0364917932.16116",2014-11-24T14:05:36.168,13832,782.00,71.75,71.56,"23:05:23",7.40,-0.690,1.010,124.23,1.26e+02,2,,1.97e+02,3.51e+00,2,1.02e+01
"1/0364917939.51702",2014-11-24T14:05:43.711,13832,774.00,72.13,71.95,"23:49:03",7.21,-0.680,1.010,123.93,1.24e+02,2,,1.91e+02,3.63e+00,2,9.83e+00
"1/0364917947.21752",2014-11-24T14:05:51.254,13832,766.00,72.53,72.34,"00:35:00",7.01,-0.680,1.010,123.63,1.12e+02,2,,1.56e+02,3.76e+00,1,9.50e+00
"1/0364917954.57338",2014-11-24T14:05:58.797,13832,759.00,72.92,72.74,"01:23:15",6.80,-0.670,1.020,123.32,1.17e+02,2,,1.70e+02,3.89e+00,1,9.18e+00
"1/0364917962.27454",2014-11-24T14:06:06.341,13832,751.00,73.31,73.13,"02:13:48",6.58,-0.660,1.020,123.01,1.22e+02,2,,1.85e+02,4.04e+00,1,8.85e+00
"1/0364917969.63040",2014-11-24T14:06:13.884,13832,744.00,73.70,73.53,"03:06:38",6.35,-0.660,1.020,122.70,1.18e+02,2,,1.73e+02,4.04e+00,1,8.85e+00
"1/0364917977.33090",2014-11-24T14:06:21.427,13832,736.00,74.10,73.93,"04:04:03",6.10,-0.650,1.020,122.39,1.16e+02,2,,1.67e+02,3.90e+00,1,9.17e+00
"1/0364917985.03140",2014-11-24T14:06:28.970,13832,729.00,74.50,74.33,"05:06:03",5.83,-0.640,1.020,122.08,1.13e+02,2,,1.58e+02,3.83e+00,1,9.32e+00
"1/0364917992.38726",2014-11-24T14:06:36.513,13832,722.00,74.89,74.73,"06:10:21",5.55,-0.640,1.020,121.76,1.17e+02,2,,1.70e+02,3.79e+00,1,9.42e+00
"1/0364918000.08842",2014-11-24T14:06:44.057,13832,714.00,75.29,75.13,"07:19:13",5.25,-0.630,1.030,121.44,1.22e+02,2,,1.85e+02,3.70e+00,1,9.64e+00
"1/0364918007.44428",2014-11-24T14:06:51.600,13832,707.00,75.69,75.53,"08:30:23",4.94,-0.620,1.030,121.13,1.34e+02,2,,2.23e+02,3.78e+00,1,9.45e+00
"1/0364918015.14478",2014-11-24T14:06:59.143,13832,700.00,76.09,75.94,"09:48:26",4.60,-0.620,1.030,120.80,1.43e+02,2,,2.54e+02,,,
"1/0364918022.50064",2014-11-24T14:07:06.686,13832,693.00,76.49,76.34,"11:11:04",4.24,-0.610,1.030,120.48,1.48e+02,2,,2.72e+02,,,
"1/0364918030.20114",2014-11-24T14:07:14.229,13832,686.00,76.89,76.75,"12:40:34",3.85,-0.600,1.030,120.16,1.54e+02,2,,2.94e+02,,,
"1/0364918037.55765",2014-11-24T14:07:21.773,13832,679.00,77.29,77.15,"14:14:39",3.44,-0.600,1.030,119.83,1.63e+02,2,,3.29e+02,,,
"1/0364918045.25815",2014-11-24T14:07:29.316,13832,672.00,77.69,77.56,"15:55:37",3.00,-0.590,1.040,119.50,1.68e+02,2,,3.50e+02,,,
"1/0364918052.61401",2014-11-24T14:07:36.859,13832,666.00,78.10,77.96,"17:45:45",2.52,-0.580,1.040,119.17,1.73e+02,2,,3.71e+02,,,
"1/0364918060.31451",2014-11-24T14:07:44.402,13832,659.00,78.50,78.37,"19:42:45",2.01,-0.570,1.040,118.84,1.67e+02,2,,3.46e+02,4.12e+00,1,8.66e+00
"1/0364918068.01501",2014-11-24T14:07:51.945,13832,652.00,78.90,78.78,"21:48:56",1.46,-0.570,1.040,118.51,1.54e+02,2,,2.94e+02,,,
"1/0364918075.37153",2014-11-24T14:07:59.489,13832,646.00,79.31,79.19,"00:06:33",0.86,-0.560,1.040,118.18,1.35e+02,2,,2.26e+02,3.26e+00,1,1.10e+01
"1/0364918083.07203",2014-11-24T14:08:07.032,13832,639.00,79.71,79.59,"02:35:39",0.21,-0.550,1.040,117.84,1.33e+02,2,,2.19e+02,3.19e+00,1,1.12e+01
"1/0364918090.42789",2014-11-24T14:08:14.575,13832,633.00,80.11,80.00,"22:12:34",359.50,-0.550,1.050,117.50,1.35e+02,2,,2.26e+02,3.12e+00,1,1.14e+01
"1/0364918098.12839",2014-11-24T14:08:22.118,13832,626.00,80.52,80.41,"01:09:10",358.73,-0.540,1.050,117.16,1.32e+02,2,,2.16e+02,,,
"1/0364918105.48425",2014-11-24T14:08:29.661,13832,620.00,80.92,80.81,"04:24:05",357.88,-0.530,1.050,116.82,1.25e+02,2,,1.94e+02,3.05e+00,1,1.17e+01
"1/0364918113.18541",2014-11-24T14:08:37.205,13832,614.00,81.32,81.22,"07:55:04",356.96,-0.520,1.050,116.48,1.37e+02,2,,2.33e+02,,,
"1/0364918120.54127",2014-11-24T14:08:44.748,13832,608.00,81.72,81.62,"11:51:14",355.93,-0.520,1.050,116.13,1.30e+02,2,,2.10e+02,3.09e+00,1,1.16e+01
"1/0364918128.24177",2014-11-24T14:08:52.291,13832,602.00,82.12,82.02,"16:10:20",354.80,-0.510,1.050,115.79,1.28e+02,2,,2.03e+02,3.01e+00,1,1.18e+01
"1/0364918135.59763",2014-11-24T14:08:59.834,13832,596.00,82.51,82.42,"20:59:14",353.54,-0.500,1.060,115.44,1.27e+02,2,,2.00e+02,3.00e+00,1,1.19e+01
"1/0364918143.29813",2014-11-24T14:09:07.377,13832,590.00,82.90,82.82,"02:20:13",352.14,-0.500,1.060,115.09,1.29e+02,2,,2.06e+02,3.06e+00,1,1.17e+01
"1/0364918150.65464",2014-11-24T14:09:14.921,13832,584.00,83.29,83.21,"08:22:27",350.56,-0.490,1.060,114.74,1.44e+02,2,,2.57e+02,3.03e+00,1,1.18e+01
"1/0364918158.35514",2014-11-24T14:09:22.464,13832,578.00,83.67,83.60,"15:08:13",348.79,-0.480,1.060,114.39,1.68e+02,2,,3.50e+02,2.91e+00,1,1.23e+01
"1/0364918166.05564",2014-11-24T14:09:30.007,13832,573.00,84.05,83.98,"22:49:00",346.78,-0.470,1.060,114.04,1.81e+02,2,,4.06e+02,3.05e+00,1,1.17e+01
"1/0364918173.41150",2014-11-24T14:09:37.550,13832,567.00,84.42,84.35,"07:33:57",344.49,-0.470,1.060,113.68,1.98e+02,2,,4.86e+02,2.96e+00,1,1.21e+01
"1/0364918181.11200",2014-11-24T14:09:45.093,13832,561.00,84.78,84.72,"17:36:50",341.86,-0.460,1.060,113.32,2.03e+02,2,,5.11e+02,3.12e+00,1,1.15e+01
"1/0364918188.46852",2014-11-24T14:09:52.637,13832,556.00,85.13,85.07,"05:06:47",338.85,-0.450,1.070,112.97,2.11e+02,2,,5.52e+02,,,
"1/0364918196.16902",2014-11-24T14:10:00.180,13832,551.00,85.47,85.41,"18:26:46",335.36,-0.440,1.070,112.61,1.81e+02,2,,4.06e+02,3.15e+00,1,1.13e+01
"1/0364918203.52488",2014-11-24T14:10:07.723,13832,545.00,85.78,85.73,"09:50:29",331.33,-0.440,1.070,112.24,1.75e+02,2,,3.80e+02,3.21e+00,1,1.11e+01
"1/0364918211.22538",2014-11-24T14:10:15.266,13832,540.00,86.07,86.02,"03:43:11",326.65,-0.430,1.070,111.88,1.80e+02,2,,4.02e+02,3.42e+00,1,1.04e+01
"1/0364918218.58124",2014-11-24T14:10:22.809,13832,535.00,86.33,86.29,"00:20:54",321.25,-0.420,1.070,111.52,1.88e+02,2,,4.38e+02,3.61e+00,1,9.88e+00
"1/0364918226.28240",2014-11-24T14:10:30.353,13832,530.00,86.56,86.51,"23:59:40",315.06,-0.410,1.070,111.15,1.93e+02,2,,4.62e+02,3.75e+00,1,9.53e+00
"1/0364918233.63826",2014-11-24T14:10:37.896,13832,525.00,86.74,86.69,"02:37:12",308.09,-0.410,1.070,110.79,1.76e+02,2,,3.84e+02,3.56e+00,1,1.00e+01
"1/0364918241.33876",2014-11-24T14:10:45.439,13832,520.00,86.86,86.82,"07:57:27",300.41,-0.400,1.070,110.42,1.77e+02,2,,3.89e+02,3.47e+00,2,1.03e+01
"1/0364918249.03926",2014-11-24T14:10:52.982,13832,515.00,86.93,86.89,"15:12:17",292.23,-0.390,1.080,110.05,1.78e+02,2,,3.93e+02,,,
"1/0364918256.39577",2014-11-24T14:11:00.526,13832,510.00,86.93,86.89,"23:10:40",283.86,-0.380,1.080,109.68,1.79e+02,2,,3.97e+02,,,
"1/0364918264.09627",2014-11-24T14:11:08.069,13832,506.00,86.86,86.82,"06:32:23",275.65,-0.380,1.080,109.31,1.72e+02,2,,3.67e+02,,,
"1/0364918271.45213",2014-11-24T14:11:15.612,13832,501.00,86.73,86.69,"12:08:41",267.90,-0.370,1.080,108.93,1.84e+02,2,,4.20e+02,,,
"1/0364918279.15263",2014-11-24T14:11:23.155,13832,497.00,86.55,86.51,"15:06:50",260.84,-0.360,1.080,108.56,2.20e+02,2,,6.00e+02,,,
"1/0364918286.50849",2014-11-24T14:11:30.698,13832,492.00,86.32,86.27,"15:03:56",254.57,-0.350,1.080,108.18,2.03e+02,2,,5.11e+02,,,
"1/0364918294.20965",2014-11-24T14:11:38.242,13832,488.00,86.05,86.00,"12:02:16",249.08,-0.350,1.080,107.81,2.03e+02,2,,5.11e+02,,,
"1/0364918301.56551",2014-11-24T14:11:45.785,13832,484.00,85.75,85.70,"06:11:01",244.33,-0.340,1.080,107.43,2.03e+02,2,,5.11e+02,,,
"1/0364918309.26601",2014-11-24T14:11:53.328,13832,479.00,85.42,85.36,"21:53:05",240.22,-0.330,1.080,107.05,2.39e+02,2,,7.08e+02,,,
"1/0364918316.62187",2014-11-24T14:12:00.871,13832,475.00,85.07,85.01,"11:24:31",236.68,-0.320,1.090,106.67,2.38e+02,2,,7.02e+02,,,
"1/0364918324.32237",2014-11-24T14:12:08.414,13832,471.00,84.70,84.64,"23:08:13",233.61,-0.320,1.090,106.29,2.11e+02,2,,5.52e+02,3.82e+00,1,9.35e+00
"1/0364918332.02353",2014-11-24T14:12:15.958,13832,467.00,84.32,84.25,"09:17:58",230.95,-0.310,1.090,105.90,2.26e+02,2,,6.33e+02,3.83e+00,1,9.32e+00
"1/0364918339.37939",2014-11-24T14:12:23.501,13832,464.00,83.93,83.85,"18:09:48",228.63,-0.300,1.090,105.52,2.23e+02,2,,6.17e+02,3.68e+00,1,9.71e+00
"1/0364918347.07989",2014-11-24T14:12:31.044,13832,460.00,83.53,83.45,"01:57:27",226.59,-0.290,1.090,105.13,2.09e+02,2,,5.42e+02,3.67e+00,1,9.74e+00
"1/0364918354.43575",2014-11-24T14:12:38.587,13832,456.00,83.12,83.03,"08:52:24",224.78,-0.290,1.090,104.75,2.23e+02,2,,6.17e+02,3.65e+00,1,9.78e+00
"1/0364918362.13625",2014-11-24T14:12:46.130,13832,453.00,82.70,82.61,"14:56:55",223.19,-0.280,1.090,104.36,2.15e+02,2,,5.73e+02,3.47e+00,1,1.03e+01
"1/0364918369.49276",2014-11-24T14:12:53.674,13832,449.00,82.27,82.18,"20:22:29",221.77,-0.270,1.090,103.97,2.22e+02,2,,6.11e+02,3.41e+00,1,1.05e+01
"1/0364918377.19326",2014-11-24T14:13:01.217,13832,446.00,81.84,81.75,"01:15:58",220.49,-0.260,1.090,103.59,2.24e+02,2,,6.22e+02,3.37e+00,2,1.06e+01
"1/0364918384.54912",2014-11-24T14:13:08.760,13832,443.00,81.41,81.31,"05:37:21",219.35,-0.250,1.090,103.20,2.33e+02,2,,6.73e+02,,,
"1/0364918392.24962",2014-11-24T14:13:16.303,13832,439.00,80.97,80.86,"09:35:50",218.31,-0.250,1.100,102.80,2.40e+02,2,,7.14e+02,2.80e+00,1,1.28e+01
"1/0364918399.60548",2014-11-24T14:13:23.846,13832,436.00,80.53,80.42,"13:11:23",217.37,-0.240,1.100,102.41,2.24e+02,2,,6.22e+02,,,
"1/0364918407.30664",2014-11-24T14:13:31.390,13832,433.00,80.09,79.97,"16:26:18",216.52,-0.230,1.100,102.02,2.00e+02,2,,4.96e+02,2.56e+00,1,1.39e+01
"1/0364918415.00714",2014-11-24T14:13:38.933,13832,430.00,79.64,79.52,"19:25:12",215.74,-0.220,1.100,101.63,2.11e+02,2,,5.52e+02,2.48e+00,1,1.44e+01
"1/0364918422.36300",2014-11-24T14:13:46.476,13832,428.00,79.19,79.06,"22:08:02",215.03,-0.220,1.100,101.23,2.14e+02,2,,5.68e+02,2.38e+00,1,1.50e+01
"1/0364918430.06350",2014-11-24T14:13:54.019,13832,425.00,78.74,78.60,"00:39:25",214.37,-0.210,1.100,100.84,2.19e+02,2,,5.95e+02,2.20e+00,2,1.62e+01
"1/0364918437.41936",2014-11-24T14:14:01.562,13832,422.00,78.28,78.14,"02:59:21",213.76,-0.200,1.100,100.44,2.02e+02,2,,5.06e+02,2.12e+00,2,1.68e+01
"1/0364918445.12052",2014-11-24T14:14:09.106,13832,420.00,77.83,77.68,"05:05:31",213.21,-0.190,1.100,100.04,2.06e+02,2,,5.26e+02,2.15e+00,2,1.66e+01
"1/0364918452.47638",2014-11-24T14:14:16.649,13832,417.00,77.37,77.22,"07:04:49",212.69,-0.180,1.100,99.65,2.02e+02,2,,5.06e+02,2.20e+00,1,1.62e+01
"1/0364918460.17688",2014-11-24T14:14:24.192,13832,415.00,76.91,76.76,"08:54:57",212.21,-0.180,1.100,99.25,2.00e+02,2,,4.96e+02,2.36e+00,1,1.52e+01
"1/0364918467.53274",2014-11-24T14:14:31.735,13832,412.00,76.45,76.29,"10:38:12",211.76,-0.170,1.100,98.85,2.11e+02,2,,5.52e+02,2.39e+00,1,1.50e+01
"1/0364918475.23324",2014-11-24T14:14:39.278,13832,410.00,75.99,75.82,"12:14:35",211.34,-0.160,1.100,98.45,2.11e+02,2,,5.52e+02,2.32e+00,2,1.54e+01
"1/0364918482.58975",2014-11-24T14:14:46.822,13832,408.00,75.52,75.35,"13:41:47",210.96,-0.150,1.100,98.05,2.03e+02,2,,5.11e+02,2.31e+00,2,1.55e+01
"1/0364918490.29025",2014-11-24T14:14:54.365,13832,406.00,75.06,74.88,"15:06:43",210.59,-0.150,1.100,97.65,2.08e+02,2,,5.37e+02,2.29e+00,2,1.56e+01
"1/0364918497.64611",2014-11-24T14:15:01.908,13832,404.00,74.59,74.41,"16:24:45",210.25,-0.140,1.100,97.25,2.16e+02,2,,5.79e+02,2.30e+00,2,1.55e+01
"1/0364918505.34661",2014-11-24T14:15:09.451,13832,402.00,74.13,73.94,"17:38:13",209.93,-0.130,1.100,96.85,2.18e+02,2,,5.89e+02,2.36e+00,2,1.51e+01
"1/0364918513.04711",2014-11-24T14:15:16.994,13832,401.00,73.66,73.47,"18:47:06",209.63,-0.120,1.110,96.44,2.16e+02,2,,5.79e+02,2.43e+00,2,1.47e+01
"1/0364918520.40363",2014-11-24T14:15:24.538,13832,399.00,73.19,72.99,"19:51:23",209.35,-0.110,1.110,96.04,2.09e+02,2,,5.42e+02,2.55e+00,1,1.40e+01
"1/0364918528.10413",2014-11-24T14:15:32.081,13832,398.00,72.72,72.52,"20:53:23",209.08,-0.110,1.110,95.64,2.18e+02,2,,5.89e+02,2.60e+00,2,1.37e+01
"1/0364918535.45999",2014-11-24T14:15:39.624,13832,396.00,72.25,72.04,"21:50:48",208.83,-0.100,1.110,95.23,2.15e+02,2,,5.73e+02,2.91e+00,1,1.23e+01
"1/0364918543.16049",2014-11-24T14:15:47.167,13832,395.00,71.78,71.57,"22:45:56",208.59,-0.090,1.110,94.83,2.25e+02,2,,6.28e+02,,,
"1/0364918550.51635",2014-11-24T14:15:54.710,13832,394.00,71.30,71.09,"23:36:28",208.37,-0.080,1.110,94.42,2.70e+02,2,,9.04e+02,2.25e+00,2,1.59e+01